Latest Weather Observations for Bankstown

IDN60901

Issued at 6:21 am EST Monday 3 August 2015 (issued every 10 minutes, with the page automatically refreshed every 10 minutes)

About weather observations | Map of Sydney area stations | Latest observations for Sydney area | Other Formats
Station Details ID: 066137 Name: BANKSTOWN AIRPORT AWS Lat: -33.92 Lon: 150.99 Height: 6.5 m
Data from the previous 72 hours. | See also: Recent months at Bankstown
Date/Time
EST
Tmp

°C
App
Tmp
°C
Dew
Point
°C
Rel
Hum
%
Delta-T

°C
Wind Press
QNH
hPa
Press
MSL
hPa
Rain
since
9 am
mm
Dir
 
Spd
km/h
Gust
km/h
Spd
kts
Gust
kts
03/06:00am 6.8 3.4 -1.8 54 3.2 SSW 6 7 3 4 1014.3 1014.3 0.0
03/05:30am 7.3 3.9 -2.2 51 3.5 WSW 6 9 3 5 1014.0 1014.0 0.0
03/05:00am 7.6 3.2 -2.4 49 3.7 SW 11 19 6 10 1013.7 1013.7 0.0
03/04:30am 8.7 3.2 -2.0 47 4.0 SSW 17 22 9 12 1013.5 1013.5 0.0
03/04:00am 9.5 3.0 -2.1 44 4.4 SW 22 32 12 17 1013.4 1013.4 0.0
03/03:30am 9.9 3.8 -2.4 42 4.7 SW 20 30 11 16 1013.5 1013.5 0.0
03/03:00am 10.1 4.2 -2.5 41 4.8 SW 19 26 10 14 1013.7 1013.7 0.0
03/02:30am 10.0 4.5 -2.0 43 4.6 SW 17 26 9 14 1013.8 1013.8 0.0
03/02:00am 10.3 4.9 -1.4 44 4.6 SW 17 22 9 12 1013.7 1013.7 0.0
03/01:30am 10.4 5.5 -0.4 47 4.3 SSW 15 19 8 10 1013.5 1013.5 0.0
03/01:00am 10.7 7.1 0.7 50 4.1 SSW 9 11 5 6 1013.5 1013.5 0.0
03/12:30am 12.1 9.3 3.3 55 3.9 S 7 11 4 6 1013.6 1013.6 0.0
03/12:00am 12.3 9.9 5.2 62 3.3 WSW 7 11 4 6 1013.6 1013.6 0.0
 
Date/Time
EST
Tmp

°C
App
Tmp
°C
Dew
Point
°C
Rel
Hum
%
Delta-T

°C
Wind Press
QNH
hPa
Press
MSL
hPa
Rain
since
9 am
mm
Dir
 
Spd
km/h
Gust
km/h
Spd
kts
Gust
kts
02/11:30pm 13.7 10.8 6.3 61 3.5 SW 11 17 6 9 1013.4 1013.4 0.0
02/11:00pm 12.5 10.3 6.1 65 3.0 S 7 9 4 5 1013.5 1013.5 0.0
02/10:30pm 13.7 12.2 5.1 56 4.0 N 2 9 1 5 1013.5 1013.5 0.0
02/10:00pm 15.3 12.6 5.8 53 4.5 NW 9 13 5 7 1013.2 1013.2 0.0
02/09:30pm 16.4 12.3 6.2 51 5.0 WNW 17 24 9 13 1013.3 1013.3 0.0
02/09:00pm 16.7 12.3 6.5 51 5.0 NW 19 24 10 13 1013.2 1013.2 0.0
02/08:30pm 17.5 13.4 6.1 47 5.6 NW 17 22 9 12 1013.2 1013.2 0.0
02/08:00pm 18.5 13.5 4.7 40 6.6 WNW 20 39 11 21 1013.2 1013.2 0.0
02/07:30pm 18.1 15.1 4.3 40 6.5 NW 9 11 5 6 1012.9 1012.9 0.0
02/07:00pm 19.3 14.7 3.5 35 7.4 W 17 24 9 13 1012.9 1012.9 0.0
02/06:30pm 19.0 15.3 4.4 38 7.0 WSW 13 17 7 9 1013.0 1013.0 0.0
02/06:00pm 19.0 15.8 2.8 34 7.5 WSW 9 13 5 7 1011.8 1011.8 0.0
02/05:30pm 20.9 16.2 3.2 31 8.4 W 17 20 9 11 1011.2 1011.2 0.0
02/05:00pm 21.4 17.4 2.6 29 8.8 NW 13 20 7 11 1010.4 1010.4 0.0
02/04:30pm 23.6 18.8 2.4 25 10.1 NW 17 24 9 13 1009.9 1009.9 0.0
02/04:00pm 24.3 18.1 1.9 23 10.6 NW 24 33 13 18 1009.7 1009.7 0.0
02/03:30pm 24.5 18.4 2.6 24 10.5 NW 24 32 13 17 1009.6 1009.6 0.0
02/03:00pm 24.5 17.4 1.4 22 10.9 NW 28 46 15 25 1009.6 1009.6 0.0
02/02:30pm 22.7 20.1 6.0 34 8.5 SSW 9 13 5 7 1010.2 1010.2 0.0
02/02:00pm 22.4 21.3 4.9 32 8.7 CALM 0 6 0 3 1010.4 1010.4 0.0
02/01:30pm 21.4 19.5 4.9 34 8.1 S 4 7 2 4 1010.9 1010.9 0.0
02/01:00pm 20.8 18.5 5.6 37 7.5 SSW 7 11 4 6 1011.7 1011.7 0.0
02/12:30pm 19.6 16.5 5.6 40 6.9 SW 11 15 6 8 1012.2 1012.2 0.0
02/12:00pm 19.4 18.1 5.8 41 6.7 WNW 2 7 1 4 1012.4 1012.4 0.0
02/11:30am 18.7 16.5 5.2 41 6.5 NNW 6 11 3 6 1013.0 1013.0 0.0
02/11:00am 16.9 14.5 5.2 46 5.6 N 7 11 4 6 1013.8 1013.8 0.0
02/10:30am 16.4 15.4 5.4 48 5.3 CALM 0 6 0 3 1014.7 1014.7 0.0
02/10:00am 14.4 13.6 6.3 58 3.9 CALM 0 0 0 0 1015.0 1015.0 0.0
02/09:30am 12.7 11.9 6.3 65 3.0 CALM 0 0 0 0 1015.2 1015.2 0.0
02/09:00am 10.6 9.3 5.8 72 2.2 SSW 2 6 1 3 1015.6 1015.6 0.0
02/08:30am 9.7 8.6 5.3 74 2.0 CALM 0 0 0 0 1015.8 1015.8 0.0
02/08:00am 9.6 8.9 6.9 83 1.3 CALM 0 0 0 0 1015.8 1015.8 0.0
02/07:30am 7.6 6.5 5.1 84 1.1 CALM 0 0 0 0 1015.8 1015.8 0.0
02/07:00am 7.0 5.8 4.5 84 1.1 CALM 0 0 0 0 1015.5 1015.5 0.0
02/06:30am 6.8 5.4 3.8 81 1.3 CALM 0 0 0 0 1015.3 1015.3 0.0
02/06:00am 8.1 6.5 4.7 79 1.5 S 2 7 1 4 1015.1 1015.1 0.0
02/05:30am 8.3 7.2 5.1 80 1.4 CALM 0 0 0 0 1015.3 1015.3 0.0
02/05:00am 8.6 7.6 5.4 80 1.4 CALM 0 0 0 0 1015.5 1015.5 0.0
02/04:30am 8.9 7.7 4.5 74 1.9 CALM 0 2 0 1 1015.4 1015.4 0.0
02/04:00am 10.2 9.3 6.0 75 1.9 CALM 0 0 0 0 1015.7 1015.7 0.0
02/03:30am 10.0 9.2 6.3 78 1.7 CALM 0 0 0 0 1015.7 1015.7 0.0
02/03:00am 9.9 8.0 6.6 80 1.5 WSW 6 7 3 4 1015.8 1015.8 0.0
02/02:30am 9.7 8.8 5.9 77 1.7 CALM 0 0 0 0 1016.1 1016.1 0.0
02/02:00am 9.7 8.9 6.4 80 1.5 CALM 0 0 0 0 1016.5 1016.5 0.0
02/01:30am 8.6 7.5 5.0 78 1.6 CALM 0 0 0 0 1016.8 1016.8 0.0
02/01:00am 9.3 8.3 5.7 78 1.6 CALM 0 0 0 0 1016.7 1016.7 0.0
02/12:30am 9.1 7.5 4.5 73 2.0 ESE 2 6 1 3 1016.7 1016.7 0.0
02/12:00am 10.3 8.4 4.9 69 2.4 E 4 9 2 5 1016.5 1016.5 0.0
 
Date/Time
EST
Tmp

°C
App
Tmp
°C
Dew
Point
°C
Rel
Hum
%
Delta-T

°C
Wind Press
QNH
hPa
Press
MSL
hPa
Rain
since
9 am
mm
Dir
 
Spd
km/h
Gust
km/h
Spd
kts
Gust
kts
01/11:30pm 10.4 9.1 3.9 64 2.9 CALM 0 0 0 0 1016.9 1016.9 0.0
01/11:00pm 11.5 10.1 3.5 58 3.5 CALM 0 0 0 0 1017.2 1017.2 0.0
01/10:30pm 12.7 11.3 3.6 54 4.1 CALM 0 0 0 0 1017.4 1017.4 0.0
01/10:00pm 14.0 12.6 3.5 49 4.7 CALM 0 0 0 0 1017.2 1017.2 0.0
01/09:30pm 15.7 14.3 3.5 44 5.6 CALM 0 0 0 0 1017.5 1017.5 0.0
01/09:00pm 17.1 14.2 2.7 38 6.5 NNW 7 9 4 5 1017.5 1017.5 0.0
01/08:30pm 17.2 13.9 2.4 37 6.7 NW 9 11 5 6 1017.4 1017.4 0.0
01/08:00pm 17.2 13.4 2.0 36 6.8 NNW 11 13 6 7 1016.9 1016.9 0.0
01/07:30pm 17.4 13.2 1.4 34 7.1 NNW 13 17 7 9 1016.8 1016.8 0.0
01/07:00pm 19.1 14.1 1.1 30 8.1 NNW 17 22 9 12 1016.4 1016.4 0.0
01/06:30pm 18.7 13.6 0.8 30 7.9 NNW 17 24 9 13 1016.1 1016.1 0.0
01/06:00pm 18.8 14.1 0.9 30 8.0 NNW 15 19 8 10 1016.0 1016.0 0.0
01/05:30pm 18.4 13.2 0.1 29 8.0 NNW 17 22 9 12 1015.6 1015.6 0.0
01/05:00pm 19.2 13.5 0.3 28 8.3 NNW 20 28 11 15 1015.3 1015.3 0.0
01/04:30pm 19.9 14.0 -0.7 25 9.0 NNW 20 32 11 17 1014.9 1014.9 0.0
01/04:00pm 20.4 14.0 -1.4 23 9.4 NNW 22 30 12 16 1015.1 1015.1 0.0
01/03:30pm 20.7 14.6 -2.4 21 9.8 NW 20 33 11 18 1015.2 1015.2 0.0
01/03:00pm 20.6 14.7 -0.7 24 9.3 NNW 20 33 11 18 1015.3 1015.3 0.0
01/02:30pm 22.1 15.1 -0.6 22 10.1 NW 26 35 14 19 1015.3 1015.3 0.0
01/02:00pm 21.0 13.9 -1.5 22 9.7 NW 26 32 14 17 1015.3 1015.3 0.0
01/01:30pm 21.7 15.1 -0.3 23 9.8 WNW 24 37 13 20 1015.5 1015.5 0.0
01/01:00pm 21.5 15.7 2.2 28 9.0 WNW 22 33 12 18 1015.8 1015.8 0.0
01/12:30pm 20.0 14.5 1.9 30 8.3 NW 20 28 11 15 1016.0 1016.0 0.0
01/12:00pm 19.2 14.5 3.4 35 7.4 WNW 17 24 9 13 1016.5 1016.5 0.0
01/11:30am 18.2 12.9 2.9 36 7.1 WNW 20 30 11 16 1017.1 1017.1 0.0
01/11:00am 18.5 12.5 3.2 36 7.1 NW 24 32 13 17 1017.3 1017.3 0.0
01/10:30am 17.2 12.0 3.8 41 6.2 WNW 20 24 11 13 1017.9 1017.9 0.0
01/10:00am 15.6 12.7 4.9 49 5.0 NW 9 17 5 9 1018.2 1018.2 0.0
01/09:30am 11.5 9.8 6.0 69 2.6 N 4 7 2 4 1018.6 1018.6 0.0
01/09:00am 9.1 8.2 6.2 82 1.3 CALM 0 6 0 3 1018.9 1018.9 0.0
01/08:30am 6.7 5.1 4.7 87 0.9 S 2 7 1 4 1019.1 1019.1 0.0
01/08:00am 5.8 4.5 4.0 88 0.8 CALM 0 0 0 0 1018.6 1018.6 0.0
01/07:30am 4.6 3.1 2.9 89 0.7 CALM 0 0 0 0 1018.5 1018.5 0.0
01/07:00am 3.3 1.5 1.5 88 0.7 CALM 0 0 0 0 1018.5 1018.5 0.0
01/06:30am 3.3 0.8 1.7 89 0.6 SSE 4 11 2 6 1018.3 1018.3 0.0
01/06:00am 3.6 0.8 2.0 89 0.6 NNW 6 7 3 4 1018.1 1018.1 0.0
01/05:51am 3.9 1.9 2.1 88 0.7 NNW 2 7 1 4 1017.9 1017.9 0.0
01/05:31am 3.5 1.8 1.7 88 0.7 CALM 0 0 0 0 1018.1 1018.1 0.0
01/05:30am 3.4 1.7 1.6 88 0.7 CALM 0 0 0 0 1018.1 1018.1 0.0
01/05:00am 4.7 3.2 2.9 88 0.7 CALM 0 0 0 0 1018.0 1018.0 0.0
01/04:30am 3.7 2.0 1.7 87 0.8 CALM 0 0 0 0 1018.7 1018.7 0.0
01/04:00am 4.9 3.4 3.1 88 0.7 CALM 0 4 0 2 1019.0 1019.0 0.0
01/03:30am 4.6 2.7 2.6 87 0.8 NW 2 6 1 3 1019.0 1019.0 0.0
01/03:00am 4.9 3.0 2.9 87 0.8 NW 2 7 1 4 1019.0 1019.0 0.0
01/02:30am 5.8 4.5 4.0 88 0.8 CALM 0 0 0 0 1019.5 1019.5 0.0
01/02:10am 5.7 3.9 3.7 87 0.8 NW 2 7 1 4 1019.7 1019.7 0.0
01/02:00am 5.4 2.6 3.4 87 0.8 NW 7 7 4 4 1019.9 1019.9 0.0
01/01:58am 5.3 2.5 3.2 86 0.9 NW 7 7 4 4 1019.9 1019.9 0.0
01/01:30am 6.0 4.6 3.7 85 1.0 CALM 0 0 0 0 1019.8 1019.8 0.0
01/01:24am 6.4 5.1 4.1 85 1.0 CALM 0 0 0 0 1019.9 1019.9 0.0
01/01:07am 6.2 3.7 3.7 84 1.1 NNW 6 6 3 3 1019.8 1019.8 0.0
01/01:00am 6.8 4.8 4.3 84 1.1 N 4 6 2 3 1019.8 1019.8 0.0
01/12:30am 8.1 5.4 5.6 84 1.1 NNW 9 11 5 6 1020.5 1020.5 0.0
01/12:00am 8.2 7.2 5.7 84 1.1 CALM 0 0 0 0 1021.0 1021.0 0.0
 
Date/Time
EST
Tmp

°C
App
Tmp
°C
Dew
Point
°C
Rel
Hum
%
Delta-T

°C
Wind Press
QNH
hPa
Press
MSL
hPa
Rain
since
9 am
mm
Dir
 
Spd
km/h
Gust
km/h
Spd
kts
Gust
kts
31/11:30pm 7.9 6.9 5.5 85 1.1 CALM 0 0 0 0 1021.4 1021.4 0.0
31/11:00pm 7.9 6.9 5.4 84 1.1 CALM 0 0 0 0 1021.5 1021.5 0.0
31/10:30pm 7.7 6.5 4.5 80 1.4 CALM 0 0 0 0 1021.5 1021.5 0.0
31/10:00pm 9.2 8.3 6.1 81 1.4 CALM 0 0 0 0 1021.4 1021.4 0.0
31/09:30pm 8.8 7.4 5.4 79 1.5 E 2 9 1 5 1021.3 1021.3 0.0
31/09:00pm 10.0 9.2 6.3 78 1.7 CALM 0 0 0 0 1020.9 1020.9 0.0
31/08:30pm 10.7 9.9 6.5 75 2.0 CALM 0 2 0 1 1020.7 1020.7 0.0
31/08:00pm 10.5 9.5 5.5 71 2.3 CALM 0 6 0 3 1020.8 1020.8 0.0
31/07:30pm 12.2 10.1 5.6 64 3.1 SE 6 11 3 6 1020.7 1020.7 0.0
31/07:00pm 13.5 11.1 5.2 57 3.9 ESE 7 9 4 5 1020.4 1020.4 0.0
31/06:30pm 14.5 11.8 5.6 55 4.2 ESE 9 13 5 7 1020.2 1020.2 0.0
31/06:00pm 15.4 12.2 5.3 51 4.8 ESE 11 15 6 8 1020.1 1020.1 0.0
31/05:30pm 15.4 13.3 1.9 40 6.0 NE 2 6 1 3 1019.7 1019.7 0.0
31/05:00pm 17.4 15.5 0.6 32 7.3 CALM 0 6 0 3 1019.4 1019.4 0.0
31/04:30pm 19.3 16.2 0.4 28 8.4 NW 6 6 3 3 1019.2 1019.2 0.0
31/04:00pm 19.8 16.7 0.3 27 8.6 NW 6 11 3 6 1019.3 1019.3 0.0
31/03:30pm 19.7 16.1 0.7 28 8.5 WNW 9 13 5 7 1019.3 1019.3 0.0
31/03:00pm 19.5 15.0 0.0 27 8.5 WNW 13 17 7 9 1019.3 1019.3 0.0
31/02:30pm 19.8 15.8 0.8 28 8.5 WNW 11 17 6 9 1019.3 1019.3 0.0
31/02:00pm 19.4 15.3 -0.1 27 8.5 W 11 17 6 9 1019.5 1019.5 0.0
31/01:30pm 19.4 14.9 -0.1 27 8.5 W 13 20 7 11 1019.8 1019.8 0.0
31/01:00pm 19.3 16.0 0.4 28 8.3 WSW 7 22 4 12 1020.0 1020.0 0.0
31/12:30pm 18.3 14.2 -0.5 28 8.1 WSW 11 17 6 9 1020.5 1020.5 0.0
31/12:00pm 18.0 13.4 -0.8 28 8.0 WNW 13 19 7 10 1021.0 1021.0 0.0
31/11:30am 17.9 13.4 -0.4 29 7.9 WNW 13 19 7 10 1021.3 1021.3 0.0
31/11:00am 17.6 13.8 1.6 34 7.1 W 11 15 6 8 1021.7 1021.7 0.0
31/10:30am 16.3 13.3 2.0 38 6.4 WSW 7 11 4 6 1021.9 1021.9 0.0
31/10:00am 16.0 12.4 2.8 41 5.9 WNW 11 19 6 10 1021.8 1021.8 0.0
31/09:30am 14.6 9.3 2.8 45 5.3 WNW 20 32 11 17 1021.4 1021.4 0.0
31/09:00am 13.3 8.5 4.5 55 4.0 WNW 19 26 10 14 1021.3 1021.3 0.0
31/08:30am 11.6 8.6 4.3 61 3.3 NW 9 13 5 7 1021.6 1021.6 0.0
31/08:00am 9.1 7.4 3.9 70 2.3 ESE 2 7 1 4 1021.5 1021.5 0.0
31/07:30am 8.4 6.6 3.5 71 2.1 W 2 7 1 4 1021.1 1021.1 0.0
31/07:00am 8.5 6.9 2.7 67 2.4 CALM 0 0 0 0 1021.1 1021.1 0.0
31/06:30am 8.2 4.9 2.2 66 2.5 W 9 11 5 6 1020.5 1020.5 0.0

Latest Capital City Observations: Canberra | Sydney | Melbourne | Brisbane | Adelaide | Perth | Hobart | Darwin

Other Formats:

Comma delimited format used in spreadsheet applications
http://www.bom.gov.au/fwo/IDN60901/IDN60901.94765.axf

JavaScript Object Notation format (JSON) in row-major order
http://www.bom.gov.au/fwo/IDN60901/IDN60901.94765.json